Starlink 2029

operational
NORAD ID: 48320 Int'l Des: 2021-036 Owner: SPXS Country: US Constellation: starlink
LEOCIRCULARSTARLINK_TYPE

Starlink 2029について

説明を読み込み中...

リアルタイム位置

3D地球を読み込み中...

次回通過

高度履歴

Altitude vs Time

uPlot chart will show altitude changes over time

軌道要素

1 48320U 21036AW 26061.15417112 .00072206 00000-0 47449-2 0 9993
2 48320 53.0560 135.4423 0000837 68.2358 291.8721 15.06958453266897
Epoch: Mar 2, 2026 • Age: 37 hours

現在のステータス

高度 549.5 km
速度 7.59 km/s
衛星直下点 -17.02°S, 119.2°E
打ち上げ日 Apr 29, 2021
運用期間 4.8 years
タイプ internet

技術仕様

分類 Payload
質量 260.00 kg
乾燥質量 248.00 kg
総質量 260.00 kg
長さ 0.20 m
直径 2.80 m
スパン 9.00 m
形状 Box + pan
製造者 SPXS
バスタイプ Starlink
フェーズステータス In Orbit
所有者/国 SPXS/US

大規模コンステレーション

Loading constellations...